Location: Newark
(13.8117°N, 3.6025°W)
Time: 03:07:37
(UTC+00:00)

Explorer 11/Cluster Stage 4 - Pass Details

Date: 26 August 2019
Orbit: 467 x 1260 km, 28.8° (Epoch: 19 September)

Event Time Altitude Azimuth Distance (km) Brightness Sun altitude
Rises 16:16:04 0° 291° (WNW) 4,069 11.3 31.4°
Reaches altitude 10° 16:19:11 10° 287° (WNW) 3,020 11.0 30.7°
Maximum altitude 16:26:25 54° 212° (SSW) 1,191 8.2 28.9°
Drops below altitude 10° 16:32:19 10° 136° (SE) 2,477 8.8 27.5°
Sets 16:34:40 0° 131° (SE) 3,290 9.3 26.9°
